This is the latest recevied weather packets stored in our database for station/object WC4PEM-13. If no packets are shown the sender has not sent any weather packets the latest 10 day(s).
| Time | Temp. | Humidity | Pressure | Rain* | Wind** | Luminosity | Snow |
|---|---|---|---|---|---|---|---|
| 1777680158 | 29.44° C | 63% | 1009.6 hPa | 0 mm | - | - | - |
| 1777679858 | 29.44° C | 63% | 1009.5 hPa | 0 mm | - | - | - |
| 1777679558 | 30° C | 59% | 1009.4 hPa | 0 mm | - | - | - |
| 1777679258 | 30° C | 58% | 1009.3 hPa | 0 mm | - | - | - |
| 1777678958 | 30.56° C | 58% | 1009.2 hPa | 0 mm | - | - | - |
| 1777678658 | 30.56° C | 58% | 1009.2 hPa | 0 mm | - | - | - |
| 1777678358 | 30.56° C | 59% | 1009.3 hPa | 0 mm | - | - | - |
| 1777678058 | 31.11° C | 55% | 1009.2 hPa | 0 mm | - | - | - |
| 1777677758 | 31.11° C | 55% | 1009.1 hPa | 0 mm | - | - | - |
| 1777677458 | 31.11° C | 54% | 1009.2 hPa | 0 mm | - | - | - |
| 1777677158 | 31.67° C | 54% | 1009.1 hPa | 0 mm | - | - | - |
| 1777676858 | 31.67° C | 52% | 1009 hPa | 0 mm | - | - | - |
| 1777676558 | 32.22° C | 51% | 1009.1 hPa | 0 mm | - | - | - |
| 1777676258 | 32.22° C | 50% | 1009 hPa | 0 mm | - | - | - |
| 1777675958 | 32.22° C | 50% | 1009 hPa | 0 mm | - | - | - |
| 1777675658 | 32.22° C | 50% | 1008.9 hPa | 0 mm | - | - | - |
| 1777675358 | 32.78° C | 48% | 1008.8 hPa | 0 mm | - | - | - |
| 1777675058 | 32.78° C | 45% | 1008.7 hPa | 0 mm | - | - | - |
| 1777674758 | 32.78° C | 47% | 1008.7 hPa | 0 mm | - | - | - |
| 1777674459 | 33.33° C | 45% | 1008.7 hPa | 0 mm | - | - | - |
| 1777674159 | 33.33° C | 47% | 1008.8 hPa | 0 mm | - | - | - |
| 1777673858 | 33.33° C | 46% | 1008.7 hPa | 0 mm | - | - | - |
| 1777673558 | 33.33° C | 45% | 1008.6 hPa | 0 mm | - | - | - |
| 1777673258 | 33.33° C | 46% | 1008.8 hPa | 0 mm | - | - | - |
| 1777672958 | 32.78° C | 45% | 1008.6 hPa | 0 mm | - | - | - |
* Rain latest hour (hover to see other rain measurements)
** Current wind speed in m/s (hover to see current wind gust speed)